Probability
0 0 0 0 0 0 0 0 0 0 0 0 0 0 0 0 0 0 0 0 0 0 0 0 0 0 0 0 0 0 0 0 0 0 0 0 0 0 0 0 0 0 0 0 0 0 0 0 0
0 0 0 0 0 0 0 0 0 0 0 0 0 0 0 0 0 0 0 0 0 0 0 0 0 0 0 0 0 0 0 0 0 0 0 0 0 0 0 0 0 0 0 0 0 0 0 0 0
0 0 0 0 0 0 0 0 0 0 0 0 0 0 0 0 0 0 0 0 0 0 0 0 0 0 0 0 0 0 0 0 0 0 0 0 0 0 0 0 0 0 0 0 0 0 0 0 0
0 0 0 0 0 0 0 0 0 0 0 0 0 0 0 0 0 0 0 0 0 0 0 0 0 0 0 0 0 0 0 0 0 0 0 0 0 0 0 0 0 0 0 0 0 0 0 0 0
0 0 0 0 0 0 0 0 0 0 0 0 0 0 0 0 0 0 0 0 0 0 0 0 0 0 0 0 0 0 0 0 0 0 0 0 0 0 0 0 0 0 0 0 0 0 0 0 0
0 0 0 0 0 0 0 0 0 0 0 0 0 0 0 0 0 0 0 0 0 0 0 0 0 0 0 0 0 0 0 0 0 0 0 0 0 0 0 0 0 0 0 0 0 0 0 0 0
0 0 0 0 0 0 0 0 0 0 0 0 0 0 0 0 0 0 0 0 0 0 0 0 0 0 0 0 0 0 0 0 0 0 0 0 0 0 0 0 0 0 0 0 0 0 0 0 0
0 0 0 0 0 0 0 0 0 0 0 0 0 0 0 0 0 0 0 0 0 0 0 0 0 0 0 0 0 0 0 0 0 0 0 0 0 0 0 0 0 0 0 0 0 0 0 0 0
0 0 0 0 0 0 0 0 0 0 0 0 0 0 0 0 0 0 0 0 0 0 0 0 0 0 0 0 0 0 0 0 0 0 0 0 0 0 0 0 0 0 0 0 0 0 0 0 0
0 0 0 0 0 0 0 0 0 0 0 0 0 0 0 0 0 0 0 0 0 0 0 0 0 0 0 0 0 0 0 0 0 0 0 0 0 0 0 0 0 0 0 0 0 0 0 0 0
0 0 0 0 0 0 0 0 0 0 0 0 0 0 0 0 0 0 0 0 0 0 0 0 0 0 0 0 0 0 0 0 0 0 0 0 0 0 0 0 0 0 0 0 0 0 0 0 0
0 0 0 0 0 0 0 0 0 0 0 0 0 0 0 0 0 0 0 0 0 0 0 0 0 0 0 0 0 0 0 0 0 0 0 0 0 0 0 0 0 0 0 0 0 0 0 0 0
0 0 0 0 0 0 0 0 0 0 0 0 0 0 0 0 0 0 0 0 0 0 0 0 0 0 0 0 0 0 0 0 0 0 0 0 0 0 0 0 0 0 0 0 0 0 0 0 0
0 0 0 0 0 0 0 0 0 0 0 0 0 0 0 0 0 0 0 0 0 0 0 0 0 0 0 0 0 0 0 0 0 0 0 0 0 0 0 0 0 0 0 0 0 0 0 0 0
0 0 0 0 0 0 0 0 0 0 0 0 0 0 0 0 0 0 0 0 0 0 0 0 0 0 0 0 0 0 0 0 0 0 0 0 0 0 0 0 0 0 0 0 0 0 0 0 0
0 0 0 0 0 0 0 0 0 0 0 0 0 0 0 0 0 0 0 0 0 0 0 0 0 0 0 0 0 0 0 0 0 0 0 0 0 0 0 0 0 0 0 0 0 0 0 0 0
0 0 0 0 0 0 0 0 0 0 0 0 0 0 0 0 0 0 0 0 0 0 0 0 0 0 0 0 0 0 0 0 0 0 0 0 0 0 0 0 0 0 0 0 0 0 0 0 0
0 0 0 0 0 0 0 0 0 0 0 0 0 0 0 0 0 0 0 0 0 0 0 0 0 0 0 0 0 0 0 0 0 0 0 0 0 0 0 0 0 0 0 0 0 0 0 0 0
0 0 0 0 0 0 0 0 0 0 0 0 0 0 0 0 0 0 0 0 0 0 0 0 0 0 0 0 0 0 0 0 0 0 0 0 0 0 0 0 0 0 0 0 0 0 0 0 0
0 0 0 0 0 0 0 0 0 0 0 0 0 0 0 0 0 0 0 0 0 0 0 0 0 0 0 0 0 0 0 0 0 0 0 0 0 0 0 0 0 0 0 0 0 0 0 0 0
0 0 0 0 0 0 0 0 0 0 0 0 0 0 0 0 0 0 0 0 0 0 0 0 0 0 0 0 0 0 0 0 0 0 0 0 0 0 0 0 0 0 0 0 0 0 0 0 0
0 0 0 0 0 0 0 0 0 0 0 0 0 0 0 0 0 0 0 0 0 0 0 0 0 0 0 0 0 0 0 0 0 0 0 0 0 0 0 0 0 0 0 0 0 0 0 0 0
0 0 0 0 0 0 0 0 0 0 0 0 0 0 0 0 0 0 0 0 0 0 0 0 0 0 0 0 0 0 0 0 0 0 0 0 0 0 0 0 0 0 0 0 0 0 0 0 0
0 0 0 0 0 0 0 0 0 0 0 0 0 0 0 0 0 0 0 0 0 0 0 0 0 0 0 0 0 0 0 0 0 0 0 0 0 0 0 0 0 0 0 0 0 0 0 0 0
0 0 0 0 0 0 0 0 0 0 0 0 0 0 0 0 0 0 0 0 0 0 0 0 0 0 0 0 0 0 0 0 0 0 0 0 0 0 0 0 0 0 0 0 0 0 0 0 0
0 0 0 0 0 0 0 0 0 0 0 0 0 0 0 0 0 0 0 0 0 0 0 0 0 0 0 0 0 0 0 0 0 0 0 0 0 0 0 0 0 0 0 0 0 0 0 0 0
0 0 0 0 0 0 0 0 0 0 0 0 0 0 0 0 0 0 0 0 0 0 0 0 0 0 0 0 0 0 0 0 0 0 0 0 0 0 0 0 0 0 0 0 0 0 0 0 0
0 0 0 0 0 0 0 0 0 0 0 0 0 0 0 0 0 0 0 0 0 0 0 0 0 0 0 0 0 0 0 0 0 0 0 0 0 0 0 0 0 0 0 0 0 0 0 0 0
0 0 0 0 0 0 0 0 0 0 0 0 0 0 0 0 0 0 0 0 0 0 0 0 0 0 0 0 0 0 0 0 0 0 0 0 0 0 0 0 0 0 0 0 0 0 0 0 0
0 0 0 0 0 0 0 0 0 0 0 0 0 0 0 0 0 0 0 0 0 0 0 0 0 0 0 0 0 0 0 0 0 0 0 0 0 0 0 0 0 0 0 0 0 0 0 0 0
Wind_Speed
7 9 6 3 3 4 7 3 4 4 3 4 6 4 4 6 3 4 5 5 6 7 10 10 10 11 13 14 14 14 14 14 15 15 15 15 14 14 14 14 14 14 14 14 14 15 15 14 13
7 5 3 3 4 5 4 5 5 5 6 5 3 3 2 6 6 8 6 5 6 8 10 8 9 11 12 12 13 13 13 13 13 13 13 13 13 13 13 13 14 14 13 13 14 14 14 14 14
6 5 3 3 5 5 4 5 7 8 7 3 3 1 3 6 8 7 8 7 6 9 10 7 10 11 11 12 12 13 13 13 13 13 13 13 13 13 13 14 14 14 14 14 14 14 14 14 14
4 3 3 4 10 6 4 4 11 8 4 0 2 3 5 4 4 8 9 7 7 8 9 7 10 11 11 11 12 12 12 13 13 13 13 13 13 14 14 14 14 15 15 14 14 14 15 14 14
3 3 4 6 12 2 4 4 9 7 7 5 3 2 8 5 8 11 8 7 7 8 8 7 10 11 12 12 12 12 12 12 12 13 13 13 14 14 15 15 15 15 15 15 15 15 15 15 15
3 3 4 7 6 4 4 3 5 7 7 7 5 4 6 7 9 9 7 7 7 8 8 7 10 11 11 11 11 12 12 12 12 12 13 13 14 14 15 15 15 15 15 16 16 16 16 16 16
3 3 6 9 6 2 5 4 4 6 7 8 5 3 7 7 8 8 7 6 8 8 8 7 6 8 10 11 11 11 12 11 11 11 11 11 12 13 13 14 14 14 14 15 16 16 17 17 16
3 4 7 6 5 2 6 4 1 3 3 5 6 4 4 10 11 8 7 6 7 7 7 7 7 8 7 7 10 11 11 10 10 9 6 4 7 10 12 11 13 14 14 15 16 16 17 17 16
3 3 6 5 2 1 6 5 3 3 2 3 2 2 4 16 13 9 6 6 7 7 7 7 7 7 8 7 9 8 8 6 6 5 2 2 4 5 6 9 12 14 14 15 16 16 17 16 16
4 4 5 2 3 3 4 6 6 4 5 6 5 6 8 12 12 12 11 11 10 9 8 7 7 7 7 7 6 5 5 4 3 3 2 3 3 3 5 7 10 12 13 14 16 16 14 12 6
5 6 5 2 2 3 3 4 5 6 8 10 11 13 13 12 12 13 13 12 11 10 9 8 8 8 6 4 5 3 3 3 4 3 2 2 2 3 3 2 4 5 8 6 8 8 5 6 5
5 8 7 2 3 0 4 4 5 10 9 1 0 9 16 17 17 17 16 12 10 11 11 9 9 8 7 5 4 4 3 3 3 3 2 2 2 2 2 2 3 3 3 4 4 3 5 6 6
7 7 4 3 3 4 6 8 7 11 11 9 3 7 14 17 16 14 13 11 11 12 12 10 9 9 7 6 5 5 4 4 4 4 2 2 3 3 3 2 2 3 3 4 4 4 5 5 6
4 6 6 5 7 6 6 8 7 12 9 10 9 9 12 15 16 14 14 14 14 13 12 11 10 9 8 6 5 5 4 4 4 4 4 3 3 3 2 2 2 3 3 3 3 5 5 5 5
3 6 9 10 10 6 4 9 12 16 9 10 10 11 12 13 14 16 16 15 13 12 13 12 11 10 9 8 7 5 5 5 4 4 5 4 3 3 2 2 2 2 2 3 3 4 4 5 5
5 5 7 8 10 7 6 11 11 11 12 11 9 10 12 13 14 14 13 12 12 12 13 13 12 11 10 8 7 5 5 5 4 5 5 5 4 3 2 2 2 2 2 2 3 3 4 4 5
8 7 11 9 9 9 9 11 7 4 8 9 10 11 12 14 15 14 13 12 12 13 13 13 11 11 10 8 7 6 5 5 5 5 5 6 5 4 3 2 1 1 1 1 3 3 3 5 6
9 11 11 10 8 9 10 14 11 6 8 11 11 12 12 14 16 15 14 13 13 13 13 13 11 10 9 7 5 5 5 4 4 5 5 7 5 5 3 2 1 1 1 1 2 3 4 4 6
12 13 16 17 8 10 14 16 15 11 9 11 12 12 13 14 12 14 15 13 13 13 14 15 13 11 9 8 7 6 6 6 5 5 7 8 7 6 4 3 2 1 1 1 2 3 4 4 4
12 14 16 14 7 8 10 13 11 11 14 15 14 14 15 12 7 11 13 13 14 15 15 15 15 14 12 9 7 5 6 5 6 5 6 7 7 7 5 5 3 2 1 1 2 3 2 3 3
15 14 16 15 6 3 3 9 13 14 18 18 15 15 16 13 10 12 14 14 14 15 17 15 15 14 12 10 7 5 4 3 4 6 6 7 8 7 6 6 4 3 3 2 3 2 3 3 3
17 10 12 13 10 8 10 9 10 11 11 13 14 14 15 12 10 14 15 16 17 15 13 13 14 13 13 12 11 11 9 8 8 7 6 7 8 7 7 6 5 4 3 4 4 3 3 3 3
12 1 2 4 6 8 6 13 9 9 12 13 14 15 15 12 11 15 16 16 13 13 13 13 13 13 13 13 13 12 9 7 6 6 9 8 7 7 7 7 6 5 4 4 4 3 3 3 4
2 2 2 2 3 10 12 16 12 11 14 11 11 12 14 9 9 11 12 11 10 11 11 13 14 14 14 14 13 13 11 9 9 9 9 7 5 6 8 7 6 5 4 4 4 4 4 4 5
5 5 3 5 7 13 12 15 10 11 11 12 12 14 10 7 9 10 12 13 13 15 15 15 16 16 15 15 15 14 12 11 12 11 10 8 6 5 7 6 6 5 5 4 3 3 4 5 6
11 10 10 9 10 9 7 14 9 9 11 12 13 9 6 7 7 9 11 13 14 16 16 17 19 18 16 17 16 13 12 9 9 10 9 9 7 6 8 7 6 5 5 4 4 4 4 4 5
9 11 8 5 8 11 11 9 7 6 7 10 10 8 8 8 9 9 10 12 14 16 19 20 19 17 17 17 14 13 13 11 9 9 8 7 6 6 8 7 6 5 5 5 4 4 4 5 5
2 3 4 7 6 13 17 14 10 12 18 18 12 9 10 10 10 11 12 14 14 15 15 14 15 16 14 13 14 12 11 10 9 8 9 8 8 8 8 7 6 5 5 4 4 4 4 5 6
7 5 7 6 7 8 14 17 3 3 6 8 9 11 13 13 14 14 13 13 12 10 11 13 14 13 13 14 13 12 11 10 9 9 9 9 8 9 8 7 6 6 5 4 4 4 5 6 7
13 16 14 10 12 8 10 26 7 3 6 9 10 11 10 12 12 12 12 11 11 12 12 14 14 14 14 13 11 11 10 11 10 9 9 9 9 8 8 7 6 5 5 4 4 5 6 7 9
Wind_Direction
266 254 258 269 255 238 250 122 115 102 85 47 21 49 4 35 29 121 136 109 105 98 94 75 67 73 74 73 73 71 70 69 69 67 65 62 59 58 55 51 46 43 41 39 37 35 32 27 24
287 282 272 250 256 264 232 133 147 133 89 76 49 39 351 90 90 117 140 121 105 89 79 76 80 82 81 81 81 79 77 75 74 72 69 66 63 59 56 51 46 42 39 36 34 30 28 23 20
280 272 268 253 253 278 26 111 109 82 94 129 138 332 6 82 116 126 128 136 113 98 97 92 95 94 91 88 86 84 82 79 76 72 69 65 62 58 54 49 44 40 35 32 29 26 23 19 16
277 237 246 253 267 284 27 88 108 115 116 163 153 150 95 59 91 115 130 145 117 106 103 105 106 103 99 94 91 87 83 79 75 71 67 63 59 55 51 47 43 38 34 29 26 21 17 13 10
235 257 238 246 253 245 67 64 119 144 164 185 213 188 140 118 98 120 146 138 128 114 108 109 105 105 103 99 95 90 85 81 77 73 68 64 60 55 50 45 41 37 33 28 23 18 13 9 5
252 243 258 261 270 101 115 118 153 173 169 146 188 244 123 135 135 146 150 151 132 113 110 104 99 99 100 99 96 92 88 83 79 75 70 66 61 56 49 43 39 35 30 25 20 14 9 5 2
260 264 264 282 307 151 136 130 209 203 179 162 179 213 132 161 152 149 150 155 129 128 131 131 127 106 101 101 99 96 91 86 80 75 71 68 65 58 51 43 38 35 30 25 20 14 8 4 1
292 285 267 267 293 348 120 130 267 254 237 137 156 222 165 167 148 146 151 152 141 146 149 150 148 136 126 110 106 103 98 93 86 78 71 65 74 68 59 43 39 35 30 26 21 14 11 5 3
267 259 265 280 332 16 123 165 146 18 323 124 190 85 71 131 140 149 161 173 165 168 162 158 155 150 141 135 129 122 116 116 114 102 96 44 54 52 68 48 38 34 28 24 20 15 14 9 4
215 245 265 5 357 343 155 201 177 187 230 202 193 135 124 139 156 172 183 188 183 182 174 165 163 153 152 151 152 160 152 142 112 84 69 65 82 61 59 54 39 32 29 21 17 14 13 7 354
218 236 292 339 340 340 290 229 219 201 231 219 205 180 158 166 178 190 198 196 189 179 178 172 167 158 160 149 159 154 134 132 116 89 78 90 78 75 57 51 32 26 30 18 6 3 1 354 343
252 259 267 300 89 12 262 248 239 220 235 232 262 184 165 177 190 198 201 198 184 179 179 173 164 158 161 159 155 145 152 152 134 123 54 90 94 72 65 62 32 33 24 10 1 346 349 342 334
234 267 262 252 156 231 263 261 258 247 238 242 176 139 172 190 199 204 202 196 186 183 175 172 161 162 162 160 161 164 158 153 136 139 105 62 95 83 68 65 43 34 25 14 350 339 337 331 326
306 308 286 233 206 212 233 255 254 246 224 230 190 189 194 200 203 200 201 199 193 182 171 165 164 165 162 164 168 157 153 146 146 141 124 87 91 96 85 72 50 47 26 360 333 328 326 318 315
315 287 273 235 204 211 205 260 233 242 216 223 207 201 211 213 207 207 203 199 190 177 166 165 167 167 168 171 171 160 154 157 155 141 140 138 120 109 110 97 72 60 12 346 332 328 323 318 319
227 248 258 234 177 149 166 256 245 227 197 213 220 217 217 221 215 213 203 193 184 171 167 167 173 171 174 173 167 155 158 161 155 150 153 147 136 129 129 115 97 64 22 354 331 320 326 318 314
221 235 246 246 167 159 191 246 257 166 171 212 225 229 225 222 216 209 198 186 178 171 168 167 170 170 174 170 160 155 157 162 158 158 160 152 149 153 146 130 127 77 39 349 321 332 332 314 308
233 240 262 265 190 178 205 240 256 242 208 226 234 235 235 230 218 200 189 180 171 167 165 166 168 170 168 163 156 150 156 170 168 167 162 155 159 162 157 156 157 93 35 325 325 324 310 297 297
252 268 273 275 266 195 221 240 250 254 248 246 249 249 247 240 223 188 176 168 163 165 167 169 172 175 171 171 173 167 178 179 180 175 168 165 164 164 168 161 160 163 214 289 317 307 308 308 309
250 259 267 277 275 217 236 253 260 259 257 252 251 256 258 253 224 171 166 165 169 171 172 174 177 180 179 181 180 169 164 183 183 175 170 170 168 171 175 168 167 173 195 278 281 288 305 306 335
250 247 256 261 259 228 290 278 251 248 247 250 247 247 252 244 213 174 171 173 172 178 179 180 181 181 180 174 171 163 144 132 162 175 178 180 174 172 168 169 168 176 188 221 244 258 263 272 303
254 245 254 258 261 246 194 257 226 230 239 237 236 241 250 243 200 173 173 178 183 183 176 178 180 181 180 176 180 178 180 183 185 179 178 177 174 173 171 170 171 179 191 212 229 232 226 240 262
253 179 262 270 255 263 231 267 238 218 238 239 229 232 247 244 193 174 177 181 180 174 175 180 181 185 182 182 185 190 197 191 170 163 165 169 174 176 172 168 169 180 194 209 219 234 233 224 231
123 108 246 237 251 251 207 239 253 202 225 227 222 231 241 226 175 163 164 164 169 171 176 182 188 191 186 186 189 195 198 186 170 167 169 172 174 175 173 168 170 179 190 205 213 224 236 239 242
163 164 253 242 221 240 192 225 244 192 196 194 208 229 226 171 154 157 162 171 177 182 186 189 193 197 191 191 196 199 198 189 184 178 176 174 173 172 176 167 169 176 187 195 203 223 235 239 243
193 186 193 224 239 256 223 237 234 200 199 198 206 205 157 155 168 177 180 183 187 189 190 192 198 200 195 196 200 197 195 194 192 183 178 178 174 166 159 157 161 171 182 198 206 221 231 238 245
181 212 217 233 278 280 250 246 228 210 229 220 209 169 177 186 193 196 193 192 194 194 196 197 199 200 199 198 194 196 195 194 188 180 171 166 160 151 150 152 162 176 188 199 208 221 234 241 248
271 211 181 197 231 266 272 267 255 228 221 220 213 194 205 205 207 206 204 201 201 201 201 198 200 203 201 193 193 196 193 188 176 170 173 165 156 149 151 159 169 181 192 201 211 228 239 248 253
195 223 209 210 205 222 275 272 197 191 183 194 207 207 211 209 211 211 209 204 199 194 194 199 202 200 199 198 192 188 183 175 170 172 172 165 159 156 160 164 172 183 194 201 216 233 246 256 262
214 208 193 205 234 226 244 263 177 208 194 193 208 214 213 212 211 208 202 191 189 194 196 200 202 202 203 196 186 182 172 170 173 173 169 163 160 158 158 161 172 186 198 204 221 243 251 257 264